Location: Kawakawa
(35.3830°S, 174.0670°E)
Time: 01:53:39
(UTC+13:00)

Explorer 7 - Pass Details

Date: 17 December 2019
Orbit: 485 x 679 km, 50.3° (Epoch: 28 January)

Event Time Altitude Azimuth Distance (km) Brightness Sun altitude
Rises 10:11:06 0° 239° (WSW) 2,587 9.9 47.7°
Reaches altitude 10° 10:13:23 10° 248° (WSW) 1,712 9.1 48.1°
Maximum altitude 10:16:54 34° 313° (NW) 866 7.9 48.8°
Drops below altitude 10° 10:20:31 10° 19° (NNE) 1,764 9.8 49.6°
Sets 10:22:55 0° 28° (NNE) 2,678 10.6 50.1°
